Flag for U.S.A. Weather past 2 weeks in Salinas, California, U.S.A.

Now
68 °F

Overcast.


Feels Like: 68 °F
Forecast: 61 / 71 °F
Wind: 6 mph from North

Location: Salinas Municipal Airport

Current Time: Sep 21, 2014 at 11:47:56 AM

Latest Report: Sep 21, 2014 at 10:53 AM


Visibility: 10 mi

Pressure: 30.05 "Hg

Humidity: 68%

Dew point: 57 °F

Location of SalinasLocation

Historic Weather in Salinas — Graph

°F

Salinas temperature yesterday

Maximum temperature yesterday: 71 °F (at 12:53 PM)
Minimum temperature yesterday: 62 °F (at 12:53 AM)
Average temperature yesterday: 65 °F

Past Weeks' High & Low Weather Summary

 TemperatureHumidityPressure
High83 °F (Sep 10, 12:53 PM)100% (Sep 11, 7:58 AM)30.05 "Hg (Sep 11, 7:58 AM)
Low54 °F (Sep 16, 5:53 AM)26% (Sep 10, 12:53 PM)29.81 "Hg (Sep 13, 7:01 PM)
Average64 °F76%29.91 "Hg
* Reported Sep 6 9:53 AM — Sep 21 9:53 AM, Salinas, Weather by CustomWeather, © 2014

Note: Actual official high and low records may vary slightly from our data, if they occured in-between our weather recording intervals... More about our weather records

Advertising

Salinas weather history for previous 24 hours

 ConditionsComfort  
Time TempWeatherWind HumidityBarometerVisibility
9:53 AM
Sep 21
66 °FOvercast.No wind70%30.05 "Hg10 mi
8:53 AM65 °FOvercast.3 mph73%30.04 "Hg10 mi
7:53 AM64 °FOvercast.3 mph78%30.03 "Hg10 mi
6:53 AM64 °FOvercast.3 mph78%30.01 "Hg10 mi
5:53 AM64 °FOvercast.6 mph78%30.00 "Hg10 mi
4:53 AM64 °FOvercast.5 mph78%29.99 "Hg10 mi
3:53 AM64 °FOvercast.6 mph78%29.99 "Hg10 mi
2:53 AM63 °FOvercast.6 mph84%29.98 "Hg10 mi
1:53 AM63 °FOvercast.6 mph84%29.98 "Hg10 mi
12:53 AM64 °FOvercast.6 mph81%29.99 "Hg10 mi
11:53 PM
Sep 20
64 °FOvercast.7 mph78%29.97 "Hg10 mi
10:53 PM64 °FPassing clouds.6 mph78%29.97 "Hg10 mi
9:53 PM65 °FOvercast.5 mph76%29.98 "Hg10 mi
8:53 PM65 °FOvercast.6 mph78%29.99 "Hg10 mi
7:53 PM65 °FOvercast.9 mph78%29.97 "Hg10 mi
6:53 PM65 °FOvercast.9 mph78%29.95 "Hg10 mi
5:53 PM65 °FOvercast.13 mph78%29.95 "Hg10 mi
4:53 PM66 °FOvercast.12 mph75%29.95 "Hg10 mi
3:53 PM67 °FOvercast.12 mph76%29.94 "Hg10 mi
2:53 PM68 °FOvercast.13 mph73%29.95 "Hg10 mi
1:53 PM68 °FOvercast.16 mph76%29.96 "Hg10 mi
12:53 PM71 °FSunny.12 mph66%29.96 "Hg10 mi
11:53 AM67 °FOvercast.7 mph76%29.98 "Hg9 mi
Weather by CustomWeather, © 2014

See weather overviewHow to use our weather pages